Showing default

FLOCK 4BE 14, 60517

Orbit data source: Space-Track

FLOCK 4BE 14, 60517 is a payload satellite owned by Planet (US) in SSO that was launched on Fri, 16 Aug 2024 UTC via an FALCON 9 launch vehicle from the Air Force Western Test Range (AFWTR). Payload-class satellites include a variety of spacecraft equipped with specific instruments for various scientific and technological missions. These include communications satellites like Starlink; space stations such as the ISS; scientific satellites like the Hubble; Earth observation satellites from companies like Planet Labs, Umbra, and HawkEye 360; GPS; miniature CubeSats for education and research; and military/defense satellites.

Loading next visibility...
Identifier
60517, 2024-149BB
Orbit
SSO
Country
Flag of USUS
Related business
Manufacturer
Planet
Mission
Operational Commercial Imaging
Bus & Motor
CUBESAT 3U, Unknown motor
Mass
5.7 kg wet, 5.7 kg dry
Launch date (UTC)
2024-08-16 (2 years ago)
Launch vehicle
FALCON 9
Launch site
Air Force Western Test Range (AFWTR)
Object type
Payload
Rocket body
Debris
Shape & HBR
Box + 2 Pan, 1.0 m
Radar Cross Section
0.072 m², Medium (>0.1 m² and < 1m²)

Expand to show TLE details & history
Last TLE update: 8 hours ago

TLE from 8 hours ago
0 FLOCK 4BE 14
1 60517U 24149BB  26125.22581695  .00023412  00000-0  59323-3 0  9990
2 60517  97.3694 208.6640 0005916  97.0430 263.1489 15.39705208 95714
Epoch: 2026-05-05T05:25Z
TLE epoch observation values (Epoch: 2026-05-05T05:25:10.584Z)
Latitude
-0.00001°
Longitude
-95.73381°
Altitude
450.583 km
Speed
7.642 km/s
True Right ascension
13h 54m 39s
True Declination
0° 00' 00"
Sunlit
Object was in full shadow at epoch
Visualization orbit readout
Latitude
Unknown
Longitude
Unknown
Altitude
Unknown
Speed
Unknown
Apparent Right ascension
Unknown
Apparent Declination
Unknown
Sunlit
N/A
Visualization observer readout
Local Sidereal Time
21:22:19
Azimuth
Unknown
Elevation
Unknown
Doppler factor
Unknown
Orbital elements
Apogee altitude
447.954 km
Perigee altitude
439.882 km
Semi-major axis
6,822.055 km
Eccentricity
0.00059
Inclination
97.3694°
RAAN
208.664°
Arg. of periapsis
97.043°
True anomaly
263.0816°
Mean anomaly
263.1489°
Eccentric anomaly
263.11525°
Mean motion
3.85186 °/min
Orbital period
93.46 mins
BSTAR
0.00059323
Loading maneuver chart data...
Computing Atmospheric mass density...
Loading historical data...
Loading historical data...
Loading historical data...
Loading historical data...
Loading historical data...
Loading historical data...
Loading historical data...

Documentation

Showing up to 5 results
|